sat.trackr.live / text

‹ back to catalog

STARLINK-31683

NORAD 59573 · 2024-076K

PAYLOAD ACTIVE UNKNOWN

§ Identity

Operator
Country
US
Launch date
2024-04-23
Launch site
AFETR
Launch vehicle
Mass (kg)
RCS (m²)

Purposes: comms

External: N2YO · Heavens-Above · Gunter

§ Orbital elements

Epoch: 2026-09-21T12:27:27.695520Z

Period
94.27 min
Inclination
42.9997°
Eccentricity
0.0001191
Mean motion
15.27592752 rev/d
Perigee alt
482.2 km
Apogee alt
483.8 km
Semi-major
6,861.1 km
B*
-8.0009e-5
RAAN
342.9355°
Arg perigee
290.1140°
Mean anomaly
69.9583°
Rev number
13,645

§ Raw data

STARLINK-316831 59573U 24076K   26264.51907055 -.00002464  00000+0 -80009-4 0  99982 59573  42.9997 342.9355 0001191 290.1140  69.9583 15.27592752136455

JSON: /api/v1/satellites/59573 · /tle

For live sub-satellite position, see the globe view (requires WebGL).

§ Visibility from observer

Set your observer location to see the next 7 days of passes ≥ 10°. The values pass through the URL so the page stays shareable.

No JS? Fill the form by hand. The geolocation button needs JavaScript.